Dewpoint
-20 -30 -35 -31 -28 -22 -19 -6 -0 1 2 1 1 3 -0 1 -0 -3 1 1 -0 1 1 3 3 4 2 -2 -3 -1 -0 4 3 -0 -6 -6 -3 0 1 3 3 2 2 -7
-36 -35 -34 -31 -30 -16 -10 -3 -2 -1 -0 1 0 -2 -5 -5 -5 -6 -3 -4 -3 -4 -2 -1 -2 -1 1 -0 -2 2 1 2 3 -0 -1 -3 -3 -8 -6 -3 -1 3 3 -9
-30 -29 -29 -32 -31 -30 -15 -3 -2 -1 -1 -4 -6 -6 -6 -7 -9 -8 -7 -6 -8 -7 -4 -5 -1 -3 -3 -4 -5 -1 1 -1 -1 1 -3 -5 -8 -11 -10 -6 0 -3 -12 -14
-20 -21 -24 -25 -26 -27 -16 -4 -2 -3 -5 -7 -9 -11 -11 -10 -8 -11 -9 -8 -8 -7 -5 -6 -5 -6 -9 -8 -9 -6 -5 -11 -11 -12 -12 -12 -13 -13 -13 -12 -12 -8 -13 -14
-15 -14 -14 -13 -13 -17 -6 -4 -5 -8 -12 -12 -11 -12 -12 -12 -12 -13 -9 -9 -9 -10 -10 -10 -10 -10 -11 -11 -12 -10 -6 -11 -11 -12 -12 -13 -13 -13 -14 -14 -14 -14 -15 -15
-14 -13 -12 -12 -13 -12 -11 -8 -7 -10 -14 -13 -12 -13 -15 -14 -15 -14 -10 -10 -9 -10 -10 -10 -11 -14 -16 -18 -14 -12 -7 -9 -9 -10 -11 -10 -13 -14 -14 -15 -15 -14 -13 -15
-24 -20 -17 -15 -14 -10 -12 -8 -7 -13 -14 -14 -15 -17 -18 -16 -16 -15 -15 -10 -11 -10 -11 -10 -10 -10 -11 -14 -17 -17 -10 -8 -9 -10 -10 -10 -15 -15 -16 -16 -16 -16 -16 -17
-33 -32 -31 -26 -21 -11 -9 -8 -8 -23 -15 -17 -17 -17 -17 -17 -17 -16 -14 -12 -12 -13 -12 -9 -8 -9 -8 -12 -18 -19 -17 -10 -10 -11 -14 -15 -14 -15 -15 -15 -16 -18 -18 -21
-33 -34 -35 -36 -32 -22 -29 -20 -16 -23 -17 -16 -18 -17 -18 -16 -15 -15 -15 -16 -16 -14 -9 -10 -11 -11 -14 -14 -19 -24 -21 -15 -11 -11 -12 -11 -14 -16 -18 -16 -14 -19 -20 -21
-33 -34 -34 -37 -36 -38 -39 -34 -34 -33 -19 -21 -20 -18 -17 -17 -17 -17 -17 -16 -16 -16 -13 -12 -12 -14 -17 -20 -19 -17 -21 -19 -15 -13 -13 -14 -17 -20 -19 -16 -17 -21 -20 -20
-34 -35 -35 -35 -35 -34 -36 -35 -33 -32 -24 -22 -22 -21 -19 -18 -17 -15 -17 -16 -17 -16 -14 -14 -15 -16 -18 -19 -20 -19 -21 -18 -19 -20 -17 -19 -19 -22 -22 -19 -21 -20 -20 -20
-31 -31 -33 -34 -34 -34 -34 -31 -29 -27 -26 -24 -24 -23 -23 -23 -19 -18 -19 -17 -16 -16 -16 -17 -20 -21 -23 -22 -20 -23 -21 -19 -19 -19 -20 -20 -21 -20 -22 -23 -21 -20 -20 -20
-28 -28 -29 -30 -31 -32 -33 -33 -32 -30 -27 -26 -25 -24 -23 -25 -27 -24 -18 -22 -23 -23 -23 -20 -21 -20 -23 -21 -22 -21 -21 -24 -21 -22 -22 -21 -21 -23 -25 -24 -23 -21 -20 -19
-28 -26 -26 -26 -28 -29 -29 -31 -31 -31 -29 -19 -24 -25 -25 -23 -24 -28 -27 -26 -26 -25 -24 -19 -19 -19 -22 -21 -21 -20 -20 -21 -22 -21 -23 -24 -26 -26 -25 -23 -22 -21 -21 -20
-27 -27 -27 -27 -25 -27 -28 -29 -28 -30 -28 -20 -25 -25 -24 -25 -24 -23 -23 -26 -27 -26 -19 -18 -18 -20 -21 -23 -22 -15 -18 -18 -19 -21 -26 -23 -23 -24 -21 -20 -21 -22 -22 -21
-27 -26 -26 -26 -27 -24 -27 -28 -25 -27 -28 -28 -19 -25 -24 -25 -25 -25 -22 -21 -21 -22 -19 -19 -20 -20 -22 -15 -13 -14 -15 -15 -16 -18 -20 -19 -20 -21 -24 -24 -23 -22 -21 -22
-27 -26 -25 -25 -26 -26 -23 -22 -21 -28 -27 -27 -19 -19 -21 -22 -24 -24 -23 -24 -22 -21 -21 -19 -19 -19 -20 -15 -13 -13 -13 -13 -13 -14 -17 -19 -21 -21 -19 -19 -21 -21 -22 -23
-27 -26 -25 -25 -22 -24 -23 -24 -20 -23 -23 -20 -13 -16 -20 -19 -21 -19 -22 -21 -22 -21 -21 -19 -18 -19 -17 -12 -13 -13 -13 -13 -14 -14 -14 -15 -15 -15 -16 -17 -19 -21 -22 -23
-26 -25 -23 -23 -20 -20 -21 -21 -20 -19 -20 -18 -17 -15 -14 -18 -20 -20 -21 -20 -17 -20 -18 -18 -18 -14 -12 -12 -12 -13 -14 -13 -13 -13 -13 -14 -14 -14 -15 -15 -15 -16 -17 -19
-26 -23 -22 -21 -21 -20 -20 -19 -18 -18 -18 -17 -17 -18 -16 -18 -19 -19 -19 -20 -19 -15 -19 -20 -18 -12 -12 -13 -13 -13 -14 -14 -13 -13 -14 -13 -14 -14 -14 -14 -14 -15 -15 -15
-25 -23 -21 -23 -25 -23 -23 -21 -18 -19 -16 -17 -17 -18 -17 -19 -18 -18 -20 -19 -21 -16 -18 -17 -17 -13 -12 -12 -13 -13 -14 -15 -15 -14 -14 -14 -14 -14 -14 -14 -14 -15 -15 -15
-21 -21 -23 -23 -22 -22 -19 -15 -19 -16 -15 -17 -16 -17 -18 -18 -18 -19 -19 -19 -20 -16 -21 -18 -14 -12 -12 -13 -13 -14 -15 -15 -15 -16 -16 -15 -15 -15 -14 -14 -14 -14 -14 -15
-24 -25 -24 -23 -22 -16 -16 -15 -13 -13 -17 -16 -16 -17 -18 -18 -18 -19 -19 -18 -16 -21 -16 -15 -13 -13 -13 -13 -14 -15 -15 -15 -16 -16 -16 -16 -17 -17 -17 -17 -16 -15 -15 -15
-26 -25 -18 -15 -15 -16 -16 -16 -16 -17 -16 -16 -17 -18 -18 -18 -18 -20 -16 -18 -19 -13 -11 -12 -13 -12 -13 -14 -14 -15 -15 -16 -16 -16 -16 -16 -16 -17 -17 -17 -17 -16 -15 -15
-25 -25 -18 -17 -20 -19 -18 -17 -17 -17 -16 -17 -18 -18 -18 -18 -17 -17 -15 -13 -12 -13 -12 -12 -13 -14 -14 -15 -15 -16 -16 -16 -17 -17 -17 -17 -17 -17 -16 -16 -16 -16 -16 -16
-25 -24 -18 -21 -20 -19 -19 -18 -17 -16 -16 -17 -17 -18 -16 -15 -16 -13 -13 -12 -12 -13 -14 -14 -14 -14 -15 -16 -16 -16 -17 -17 -17 -17 -17 -17 -17 -17 -17 -18 -17 -17 -17 -17
-25 -21 -20 -19 -19 -18 -19 -17 -17 -16 -16 -16 -17 -15 -14 -16 -13 -12 -12 -12 -13 -13 -14 -14 -15 -15 -16 -16 -16 -17 -17 -17 -18 -18 -18 -18 -18 -17 -18 -18 -18 -18 -18 -18
Wind_Speed
34 35 32 28 26 25 17 5 4 5 5 5 3 3 15 14 18 19 8 10 14 16 21 21 20 17 17 16 9 10 9 5 10 10 3 2 3 6 10 4 5 5 5 4
28 26 25 24 21 18 15 5 6 7 6 3 7 11 12 9 13 13 9 8 8 8 9 7 12 20 20 17 15 10 10 6 4 3 3 1 3 5 4 2 2 6 5 5
23 23 22 20 19 15 9 3 3 4 8 10 7 9 9 12 15 7 11 7 11 14 7 1 7 11 6 18 17 21 9 5 4 6 4 3 6 9 6 3 4 4 5 13
22 21 20 18 16 14 4 4 4 6 4 7 6 7 9 9 10 11 16 7 16 12 6 10 7 8 10 8 18 12 6 10 12 19 21 25 21 19 19 8 2 3 11 13
23 21 20 20 19 11 11 4 3 7 7 10 6 12 8 7 11 5 7 11 15 11 6 6 8 9 9 8 13 11 6 9 9 10 16 25 22 19 12 12 13 18 18 11
27 24 22 22 22 14 5 5 6 4 10 6 3 6 7 7 12 5 5 13 7 7 8 10 5 12 11 8 11 9 6 9 4 5 7 6 11 18 10 9 11 1 4 6
28 27 27 26 25 23 16 13 8 6 4 4 3 4 5 8 9 5 14 9 6 6 22 18 15 10 4 12 15 18 7 3 3 4 3 5 3 6 13 13 9 9 12 6
30 30 31 27 25 20 13 11 6 6 4 4 5 13 6 13 7 3 5 5 10 20 10 3 4 1 2 6 11 18 15 1 6 4 6 6 3 3 4 3 2 4 3 4
31 32 32 32 26 20 19 19 12 8 10 10 9 6 7 5 8 6 4 10 12 13 2 4 7 7 5 7 17 15 16 16 5 3 5 4 2 2 3 4 2 3 2 4
29 30 29 34 27 26 25 19 13 12 13 12 11 5 5 7 5 4 6 14 14 15 5 5 6 4 3 6 9 9 9 7 11 9 6 4 2 6 3 0 3 4 0 5
32 30 27 23 24 27 28 22 21 31 19 17 18 16 9 7 5 4 10 4 7 7 6 4 4 5 4 2 2 5 8 7 5 3 4 4 2 3 2 2 3 3 5 7
23 23 28 27 24 19 16 29 33 34 29 14 22 24 25 20 13 6 9 2 2 5 2 3 3 4 3 1 4 1 4 4 3 3 3 2 4 3 4 2 4 6 8 9
27 26 21 18 21 23 20 17 10 8 12 19 21 16 23 25 21 15 5 5 5 5 5 4 3 7 1 4 5 3 2 2 2 2 3 5 6 7 7 8 11 11 13 13
22 25 27 21 12 12 15 20 17 8 6 4 5 17 19 20 23 20 11 7 9 11 8 6 4 3 3 2 2 2 2 3 4 4 5 10 8 9 8 10 13 16 17 17
17 16 15 19 22 12 8 8 15 13 5 3 2 7 16 11 14 18 21 12 15 13 6 6 3 2 1 1 2 2 2 1 3 3 3 5 11 9 15 18 19 17 18 21
17 17 14 15 12 19 7 5 8 10 3 2 2 2 16 10 7 10 19 18 20 12 6 4 4 3 1 3 3 5 9 9 11 7 14 18 23 23 19 17 17 18 21 22
15 16 15 9 9 9 12 7 16 7 3 2 2 3 9 24 12 8 10 12 10 7 5 5 2 2 1 1 5 19 18 17 16 15 17 17 9 14 22 22 21 22 24 23
13 13 11 5 10 6 10 11 16 10 5 6 3 4 5 21 9 7 12 8 5 9 4 3 3 1 1 3 15 22 25 21 15 13 17 23 24 25 22 22 22 24 25 23
9 9 6 5 9 7 9 9 9 15 13 6 5 5 4 16 9 7 6 6 3 4 3 3 3 1 4 9 19 23 26 22 26 24 24 24 23 24 23 22 22 25 27 26
3 4 4 5 9 10 7 5 6 8 10 7 5 5 3 11 8 4 8 5 2 1 2 5 1 2 2 15 23 28 28 26 26 27 25 23 27 27 29 28 27 27 28 28
3 3 4 8 12 9 7 9 10 10 5 8 7 6 7 8 3 3 6 2 3 1 2 3 1 1 9 27 25 31 32 29 26 23 25 26 27 30 30 30 29 28 28 28
7 6 9 10 9 9 8 4 6 5 4 9 7 8 5 5 5 3 4 2 2 2 6 2 1 1 20 32 30 34 32 31 31 27 26 26 26 27 29 32 32 30 29 28
7 5 6 8 10 11 5 6 4 5 11 7 17 10 6 4 3 3 3 3 2 5 2 3 1 16 33 34 35 35 32 31 31 31 28 27 28 27 26 30 29 29 30 28
7 7 8 4 4 2 3 3 4 9 11 20 17 5 3 3 4 2 3 1 2 4 5 5 9 33 39 36 34 36 36 34 34 34 31 30 29 30 28 27 26 26 28 28
7 6 4 2 2 4 9 12 11 13 17 16 5 3 3 2 2 1 3 6 5 2 5 8 32 38 38 38 37 37 37 36 35 34 33 32 31 30 30 28 26 25 25 25
7 8 5 3 3 7 12 14 15 22 20 6 3 2 2 5 3 5 4 6 3 6 17 32 36 37 37 37 38 37 35 34 34 33 32 31 29 29 31 30 28 28 27 26
5 5 6 5 4 5 8 16 21 21 13 6 4 5 4 6 4 5 2 4 9 28 33 33 33 35 37 37 36 36 34 34 33 33 32 29 30 33 31 30 32 29 28 29
Wind_Direction
322 324 327 326 332 332 336 339 282 327 333 300 246 281 313 327 4 11 321 338 358 349 339 284 254 223 213 203 172 171 207 216 219 205 47 350 68 196 189 213 190 237 271 118
331 336 338 340 342 349 348 343 281 315 337 309 322 351 322 360 352 345 350 324 349 338 333 338 334 342 316 247 177 191 166 215 202 150 145 78 87 37 352 61 57 203 227 135
348 350 354 354 354 354 352 16 335 30 65 48 5 345 345 334 336 306 5 344 344 329 296 141 295 330 335 7 6 343 221 74 342 223 84 42 74 22 342 2 202 96 36 139
7 6 9 10 12 8 59 54 41 10 4 10 6 345 6 342 345 347 14 1 359 338 296 329 8 342 345 338 8 343 47 53 64 60 76 81 75 57 47 63 22 45 128 122
23 24 27 20 18 29 56 64 9 51 26 359 5 9 22 333 333 313 358 358 338 21 49 14 338 349 7 22 320 5 22 139 101 66 78 72 55 46 53 51 70 90 104 92
33 30 33 35 37 40 65 93 90 109 15 354 3 11 330 307 343 268 316 337 330 29 29 336 57 87 97 60 9 339 340 155 124 153 213 308 36 3 46 66 29 58 104 112
46 45 43 38 37 49 69 86 96 87 29 24 14 326 320 291 313 275 309 329 352 339 314 303 262 239 210 27 25 22 352 64 65 120 323 47 217 66 83 81 52 66 89 87
51 50 50 43 42 47 44 66 89 108 88 346 337 335 313 312 318 276 268 319 322 323 306 262 308 13 345 347 7 19 8 94 83 93 59 148 142 40 22 360 71 30 64 24
56 53 50 48 44 47 57 75 84 95 117 8 316 318 336 341 337 330 280 328 353 352 297 35 26 28 326 334 333 5 12 33 77 90 79 79 62 38 345 212 111 168 44 6
52 50 55 53 51 54 67 80 79 90 95 28 25 17 319 330 304 273 304 335 349 8 32 53 30 35 311 13 9 340 345 6 45 49 92 91 39 320 310 193 70 154 342 329
55 53 51 58 57 53 51 79 73 81 90 57 48 39 23 349 360 347 327 307 18 2 53 49 31 36 35 59 1 347 5 351 16 21 79 62 357 278 335 69 176 213 288 310
46 44 43 48 49 48 49 72 69 74 77 75 53 43 33 25 11 336 5 63 343 16 75 60 113 55 36 299 41 117 21 17 1 1 56 327 285 273 322 268 243 260 272 289
39 36 31 33 45 50 43 53 54 63 77 60 46 36 36 34 31 33 16 25 25 41 78 104 99 80 288 26 34 298 128 178 310 283 187 254 261 269 262 256 250 268 282 294
38 38 34 22 5 18 35 40 43 56 92 86 46 37 36 36 40 44 55 67 66 67 62 72 67 80 358 68 36 3 359 283 336 265 264 288 257 252 264 274 278 281 290 290
16 16 10 15 15 10 353 12 35 39 61 117 147 42 29 32 40 47 53 61 65 60 54 48 60 71 166 69 233 32 210 311 340 300 284 272 285 296 297 289 289 290 288 290
355 353 353 359 10 17 14 6 357 7 51 140 140 107 26 31 37 41 51 52 52 60 71 89 78 55 61 44 14 273 296 289 262 261 296 289 295 297 296 289 298 298 291 292
337 342 346 9 16 16 55 55 9 15 61 80 81 18 359 9 23 22 29 38 41 56 78 60 71 59 37 99 18 335 332 325 310 297 287 294 297 299 302 301 302 296 291 291
320 335 346 29 30 27 27 36 25 33 62 55 44 328 339 9 356 2 7 12 30 36 71 56 22 307 225 21 336 333 341 330 325 316 298 302 301 300 307 304 301 296 296 300
315 335 357 11 19 22 18 30 35 44 57 82 63 349 324 345 8 350 345 3 56 25 53 38 330 310 52 343 330 331 339 328 315 314 314 308 302 311 311 309 307 301 303 304
330 9 35 29 3 18 29 27 24 33 37 52 81 356 316 333 337 351 349 16 47 61 36 331 327 103 190 354 355 351 344 341 339 321 315 317 311 311 313 311 308 305 305 305
48 51 61 39 33 31 36 34 32 358 40 16 7 7 324 338 333 328 13 340 341 21 26 327 17 204 340 346 347 343 343 339 338 326 317 314 309 309 309 309 308 305 302 300
72 87 69 36 29 29 50 9 353 22 345 345 353 338 320 318 333 322 344 330 307 2 333 307 340 317 344 343 339 338 338 336 334 333 326 322 316 314 309 306 307 309 306 302
56 55 52 25 19 37 41 345 323 330 341 335 333 328 319 330 344 306 327 334 358 305 335 343 296 333 341 339 337 336 335 335 335 331 329 325 323 321 317 310 309 308 305 307
56 49 30 55 4 22 221 241 271 299 305 322 324 308 332 331 334 331 323 33 277 2 357 340 335 337 334 335 334 335 334 335 333 336 335 333 331 328 326 322 318 311 306 307
68 61 66 57 347 338 324 323 322 331 323 327 321 300 333 329 315 354 307 356 1 20 329 318 327 328 331 332 334 333 332 332 332 338 338 337 338 337 336 338 332 328 322 316
58 56 86 90 48 14 1 349 348 345 341 343 342 318 352 43 344 12 35 325 321 331 324 318 321 325 327 329 331 333 332 335 339 341 340 340 343 343 340 341 343 339 335 331
70 82 80 86 67 32 8 356 355 355 359 12 353 38 353 294 356 1 14 356 314 313 313 316 318 321 323 327 330 332 341 342 342 344 346 346 349 347 340 338 346 345 344 340
Height
1489 1484 1477 1471 1465 1457 1457 1456 1455 1453 1453 1456 1448 1443 1439 1439 1435 1435 1428 1418 1416 1409 1405 1386 1378 1369 1366 1367 1370 1379 1380 1376 1370 1377 1398 1399 1392 1382 1383 1384 1384 1382 1373 1462
1485 1479 1476 1470 1462 1457 1455 1455 1456 1452 1452 1450 1447 1449 1444 1444 1440 1435 1431 1426 1427 1421 1413 1404 1397 1386 1370 1361 1360 1367 1371 1370 1369 1382 1393 1397 1398 1416 1412 1403 1399 1379 1377 1470
1483 1479 1474 1470 1465 1458 1457 1457 1456 1454 1454 1461 1462 1459 1448 1447 1446 1438 1439 1434 1429 1427 1407 1401 1398 1393 1382 1381 1378 1368 1362 1375 1376 1355 1382 1400 1416 1433 1427 1414 1389 1411 1467 1484
1483 1480 1475 1472 1465 1461 1457 1460 1462 1462 1467 1462 1468 1469 1464 1460 1451 1449 1446 1438 1441 1437 1422 1415 1402 1402 1393 1387 1388 1381 1381 1422 1427 1435 1433 1432 1443 1448 1446 1447 1450 1434 1477 1485
1484 1481 1478 1475 1467 1465 1463 1465 1467 1467 1473 1471 1469 1472 1473 1472 1465 1463 1449 1451 1445 1441 1440 1444 1436 1424 1427 1425 1403 1398 1395 1426 1424 1445 1450 1441 1455 1459 1465 1470 1470 1473 1482 1494
1487 1483 1479 1475 1469 1465 1466 1468 1467 1468 1485 1480 1473 1484 1482 1474 1476 1462 1459 1455 1447 1445 1446 1445 1441 1436 1437 1435 1426 1416 1403 1414 1416 1437 1440 1436 1453 1479 1479 1481 1485 1478 1476 1492
1492 1488 1482 1478 1472 1469 1470 1468 1468 1471 1488 1484 1486 1486 1485 1477 1476 1472 1459 1456 1452 1450 1445 1442 1439 1437 1434 1431 1430 1426 1418 1410 1415 1432 1438 1449 1491 1488 1486 1490 1495 1494 1491 1496
1497 1493 1487 1484 1479 1475 1474 1471 1470 1474 1491 1493 1487 1485 1482 1474 1471 1470 1463 1457 1456 1449 1444 1437 1431 1431 1429 1432 1435 1432 1429 1416 1426 1437 1468 1489 1487 1489 1488 1489 1500 1501 1499 1499
1502 1497 1491 1487 1487 1483 1477 1473 1474 1474 1483 1497 1496 1489 1485 1481 1473 1464 1461 1457 1452 1448 1443 1440 1450 1459 1468 1451 1444 1439 1436 1421 1417 1439 1446 1464 1485 1491 1493 1491 1485 1500 1499 1500
1505 1500 1499 1492 1493 1490 1484 1480 1479 1477 1487 1501 1495 1494 1492 1487 1483 1479 1469 1462 1455 1451 1447 1454 1464 1467 1482 1477 1482 1480 1460 1458 1460 1452 1465 1485 1494 1495 1492 1474 1493 1497 1499 1499
1508 1508 1503 1500 1499 1497 1495 1488 1486 1483 1491 1501 1499 1495 1492 1488 1486 1481 1472 1466 1464 1462 1462 1466 1479 1478 1493 1491 1506 1501 1491 1483 1478 1464 1468 1481 1497 1493 1485 1493 1494 1496 1498 1496
1515 1510 1509 1507 1503 1503 1501 1494 1494 1491 1491 1504 1502 1497 1494 1491 1488 1484 1481 1483 1481 1480 1476 1482 1485 1488 1493 1510 1485 1506 1492 1507 1496 1497 1491 1499 1497 1495 1491 1491 1494 1495 1496 1495
1518 1514 1513 1511 1509 1508 1503 1499 1498 1496 1498 1503 1502 1502 1500 1495 1490 1487 1487 1484 1483 1482 1482 1487 1494 1501 1506 1495 1500 1504 1508 1512 1503 1503 1500 1497 1495 1494 1493 1493 1493 1493 1491 1489
1522 1519 1516 1514 1512 1509 1507 1503 1501 1500 1500 1504 1510 1507 1504 1500 1496 1492 1489 1488 1487 1485 1485 1489 1496 1499 1510 1506 1511 1507 1509 1509 1509 1498 1496 1494 1492 1491 1492 1491 1489 1487 1485 1483
1525 1522 1520 1517 1513 1509 1507 1506 1504 1502 1504 1505 1508 1508 1507 1504 1502 1498 1495 1492 1490 1488 1490 1496 1505 1510 1510 1514 1513 1504 1508 1505 1502 1494 1496 1496 1491 1489 1488 1486 1484 1482 1480 1477
1525 1523 1521 1518 1515 1511 1508 1507 1506 1504 1504 1506 1507 1509 1508 1506 1504 1503 1499 1495 1494 1493 1498 1506 1509 1511 1511 1507 1504 1506 1503 1501 1500 1497 1493 1491 1487 1484 1482 1480 1479 1477 1474 1471
1524 1522 1520 1518 1515 1514 1512 1514 1510 1505 1505 1506 1508 1510 1509 1507 1504 1503 1502 1501 1500 1499 1503 1508 1510 1511 1512 1510 1504 1504 1501 1497 1494 1492 1490 1485 1481 1480 1478 1475 1473 1471 1468 1465
1523 1521 1519 1517 1516 1515 1513 1512 1511 1507 1507 1508 1514 1515 1512 1510 1508 1506 1505 1504 1504 1505 1508 1511 1512 1512 1511 1508 1507 1504 1499 1495 1490 1488 1485 1481 1478 1474 1471 1469 1466 1463 1459 1457
1522 1521 1519 1518 1517 1515 1516 1514 1513 1512 1513 1517 1528 1532 1521 1517 1515 1513 1510 1508 1508 1511 1512 1515 1516 1509 1509 1512 1507 1502 1498 1494 1488 1484 1480 1476 1472 1468 1465 1463 1460 1455 1451 1449
1521 1520 1520 1520 1520 1517 1517 1516 1516 1516 1520 1526 1535 1536 1532 1529 1520 1516 1515 1512 1514 1511 1519 1516 1514 1509 1511 1509 1505 1501 1495 1489 1484 1478 1473 1471 1466 1463 1459 1456 1453 1449 1445 1441
1522 1522 1523 1523 1521 1521 1521 1524 1527 1530 1533 1536 1537 1537 1536 1530 1529 1525 1524 1521 1519 1510 1518 1515 1512 1508 1509 1505 1501 1496 1491 1486 1481 1476 1471 1466 1462 1456 1452 1448 1445 1442 1438 1434
1523 1524 1525 1526 1528 1530 1534 1544 1542 1542 1543 1541 1539 1538 1535 1532 1531 1530 1527 1524 1522 1511 1522 1516 1505 1509 1507 1502 1497 1492 1487 1481 1475 1471 1465 1460 1456 1452 1446 1441 1437 1434 1430 1426
1525 1526 1530 1536 1544 1551 1557 1562 1553 1550 1547 1544 1542 1540 1536 1534 1533 1532 1531 1521 1519 1524 1516 1510 1511 1508 1505 1500 1493 1487 1483 1477 1471 1465 1460 1455 1449 1445 1441 1434 1430 1426 1421 1418
1529 1536 1548 1554 1563 1565 1565 1563 1559 1555 1549 1546 1542 1540 1538 1536 1535 1534 1527 1526 1527 1511 1512 1511 1510 1508 1502 1497 1491 1484 1477 1471 1466 1459 1453 1448 1443 1437 1433 1428 1423 1418 1413 1409
1537 1545 1562 1566 1567 1566 1564 1561 1557 1554 1549 1544 1542 1540 1540 1537 1536 1534 1530 1525 1523 1528 1521 1517 1513 1508 1502 1494 1488 1481 1474 1467 1460 1454 1448 1442 1436 1431 1425 1421 1416 1411 1406 1402
1548 1556 1563 1567 1567 1567 1564 1560 1557 1552 1547 1544 1543 1542 1538 1542 1544 1535 1541 1537 1529 1528 1526 1520 1513 1506 1499 1492 1485 1479 1472 1465 1457 1451 1444 1438 1432 1426 1420 1414 1409 1405 1400 1395
1559 1565 1566 1567 1568 1568 1566 1562 1558 1553 1548 1548 1546 1547 1550 1552 1544 1542 1543 1542 1540 1534 1525 1519 1513 1505 1496 1489 1483 1476 1468 1461 1454 1447 1441 1434 1428 1422 1416 1410 1404 1399 1394 1389